[[{"header":{"parameterUnit":"m.s-1","parameterCategory":2,"la1":30.2991,"la2":30.254,"lo1":-89.0895,"lo2":-89.0444,"dy":0.0017,"dx":0.0017,"nx":28,"ny":28,"refTime":"2023-07-30T03:00:00:Z","depth":"0","parameterNumber":2,"parameterNumberName":"U-component_of_CURRENTS"},"data":[0,0,0,0,0,0,0,0,0,0,0,0,0,0,0,0,0,0,0,0,0,0,0,0,0,0,0,0,0,0,0,0,0,0,0,0,0,0,0,0,0,0,0,0,0,0,0,0,0,0,0,0,0,0,0,0,0,0,0.4735,0.4737,0,0.4864,0.4865,0.4866,0.4885,0.4885,0.4884,0.4883,0.4853,0.4853,0.4853,0,0,0,0,0,0,0,0,0,0,0,0,0,0.4659,0.4659,0.4735,0.4737,0.4739,0.4863,0.4865,0.4866,0.4885,0.4885,0.4884,0.4883,0.4853,0.4853,0.4853,0,0,0,0,0,0,0,0,0,0,0,0,0,0.4724,0.4659,0.4735,0.4769,0.4774,0.4863,0.4865,0.4866,0.4885,0.4885,0.4884,0.4883,0.4853,0.4853,0.4852,0.4867,0,0,0.4851,0.4851,0,0,0,0,0,0,0,0,0.472,0.4726,0.4762,0.4767,0.4772,0.4863,0.4828,0.4861,0.4886,0.4836,0.4883,0.4882,0.4847,0.4847,0.4866,0.4865,0.4864,0.4851,0.4851,0.4851,0.4851,0,0,0,0,0,0,0,0.4715,0.4721,0.4779,0.4764,0.4771,0.4831,0.4837,0.4835,0.4836,0.484,0.4844,0.4869,0.4847,0.4866,0.4865,0.4863,0.4851,0.4851,0.485,0.485,0.4967,0.497,0,0,0,0,0,0,0.4705,0.4716,0.4775,0.4784,0.4751,0.4833,0.4839,0.483,0.484,0.4844,0.4869,0.4869,0.4867,0.4865,0.4864,0.4988,0.4851,0.485,0.485,0.4964,0.4968,0.4971,0,0,0,0,0,0,0.4703,0.4708,0.477,0.4761,0.4773,0.4834,0.4824,0.4833,0.4854,0.4865,0.4864,0.4883,0.4867,0.4864,0.4908,0.4982,0.485,0.485,0.496,0.4965,0.4969,0.5168,0,0,0,0,0,0,0.4699,0.4705,0.4693,0.4758,0.4774,0.4851,0.4826,0.4836,0.4874,0.4875,0.4876,0.4873,0.4866,0.4909,0.4908,0.4979,0.4849,0.4955,0.4962,0.4968,0.5157,0.5179,0.5198,0,0,0,0,0,0.4695,0.4707,0.469,0.4698,0.4753,0.4854,0.4868,0.4905,0.4875,0.4912,0.4922,0.4873,0.4947,0.4912,0.4909,0.4983,0.4952,0.496,0.4967,0.5148,0.5174,0.5197,0,0,0,0,0,0,0.4675,0.4712,0.4695,0.4714,0.4783,0.486,0.4904,0.4907,0.4943,0.4936,0.4915,0.4916,0.4989,0.495,0.4911,0.5034,0.4941,0.4949,0.5079,0.5104,0.5124,0.5202,0.4849,0,0,0,0,0,0.4659,0.467,0.4727,0.4747,0.4782,0.4831,0.487,0.4897,0.4944,0.4958,0.4962,0.4972,0.5019,0.503,0.5055,0.5109,0.513,0.5153,0.5174,0.5191,0.5254,0.536,0.5397,0.4996,0.4996,0.4996,0,0,0.4661,0.4681,0.4688,0.4743,0.4794,0.4888,0.4852,0.4933,0.5021,0.4946,0.5047,0.5042,0.505,0.5142,0.5167,0.5116,0.5313,0.5201,0.5216,0.527,0.5372,0.5411,0.5446,0.5001,0.5,0.4999,0,0,0.4705,0.4687,0.4725,0.4795,0.4879,0.4929,0.495,0.5029,0.5075,0.5165,0.5152,0.5207,0.5235,0.5296,0.532,0.5459,0.5421,0.5435,0.5601,0.5703,0.5738,0.5769,0.5835,0.587,0.5441,0.5441,0.5441,0,0.4709,0.4764,0.4762,0.4846,0.4942,0.495,0.5071,0.5125,0.5209,0.528,0.5221,0.5348,0.5336,0.5495,0.5559,0.5514,0.5547,0.5507,0.5735,0.5766,0.5795,0.5854,0.5891,0.5452,0.545,0.5449,0.5448,0,0.4797,0.4865,0.4917,0.5016,0.5104,0.5222,0.531,0.5382,0.5413,0.5475,0.5616,0.5617,0.5698,0.5697,0.568,0.5878,0.5828,0.5753,0.568,0.5848,0.5898,0.5933,0.5467,0.5463,0.546,0.5457,0,0,0.479,0.4948,0.497,0.5081,0.5225,0.5323,0.5471,0.5644,0.5751,0.5807,0.5964,0.6055,0.6031,0.606,0.6025,0.6119,0.6334,0.604,0.6041,0.6121,0.6556,0.6344,0.636,0.6298,0.6306,0.6312,0.6505,0,0.489,0.5087,0.5136,0.537,0.5519,0.5597,0.5743,0.588,0.5964,0.6096,0.6142,0.6247,0.6173,0.62,0.6302,0.6308,0.6438,0.6289,0.637,0.6373,0.6177,0.6398,0.598,0.6103,0.6539,0.6544,0.6549,0,0.4988,0.513,0.5371,0.5614,0.5678,0.5792,0.6045,0.617,0.6337,0.639,0.6498,0.6501,0.6651,0.6535,0.6717,0.662,0.6653,0.6653,0.6658,0.6429,0.6228,0.6007,0.6149,0.5939,0.6601,0.6597,0.6593,0,0.5074,0.5305,0.5517,0.561,0.5859,0.5975,0.6086,0.627,0.6375,0.6565,0.6618,0.6783,0.6821,0.6922,0.691,0.6843,0.7082,0.6962,0.6828,0.681,0.6458,0.6396,0.6421,0.7178,0.7178,0.7178,0.7177,0,0.5224,0.5404,0.5564,0.571,0.5938,0.6065,0.6273,0.6398,0.6536,0.6647,0.6751,0.6838,0.6926,0.7024,0.7036,0.7031,0.7187,0.6939,0.6882,0.6507,0.645,0.6247,0.6186,0.7185,0.7183,0.7182,0.718,0,0.5356,0.5454,0.5716,0.5949,0.6001,0.6173,0.6323,0.6436,0.6565,0.6699,0.6752,0.6918,0.7021,0.7085,0.7228,0.7138,0.6958,0.7157,0.669,0.6576,0.6164,0.6129,0.6038,0.5883,0.7034,0.703,0.7027,0,0.5479,0.562,0.5852,0.5926,0.6034,0.622,0.6305,0.6453,0.6541,0.672,0.6783,0.693,0.697,0.7086,0.6994,0.6993,0.6853,0.6623,0.6427,0.6162,0.6085,0.5948,0.5816,0.6041,0.6031,0.6022,0.6015,0,0.5703,0.5744,0.5892,0.6028,0.6129,0.6245,0.6367,0.6414,0.6554,0.6613,0.6687,0.6723,0.6788,0.6555,0.6551,0.6514,0.6235,0.6437,0.6299,0.5462,0.5186,0.4993,0.5892,0.5936,0.5944,0.5949,0.5954,0.5957,0.58,0.5879,0.596,0.6066,0.6163,0.6187,0.6173,0.6245,0.6285,0.6203,0.6437,0.6272,0.6136,0.6024,0.5989,0.5564,0.5724,0.5287,0.532,0.5249,0.4935,0.5658,0.5537,0.5542,0.5547,0.5551,0.5555,0,0.5841,0.5838,0.5954,0.6005,0.601,0.6095,0.612,0.5988,0.5876,0.5848,0.5779,0.5438,0.5164,0.5052,0.4689,0.4465,0.433,0.4317,0.4028,0.3998,0.473,0.4512,0.3994,0.3994,0.3995,0.3995,0.3995,0.3995,0.5825,0.5822,0.5816,0.5771,0.5791,0.5644,0.5574,0.5408,0.531,0.4871,0.4556,0.4485,0.4422,0.4123,0.3771,0.368,0.348,0.3222,0.3414,0.3879,0.3971,0.4059,0.3839,0.3189,0.3188,0.2415,0.2409,0.2404]},{"header":{"parameterUnit":"m.s-1","parameterCategory":2,"la1":30.2991,"la2":30.254,"lo1":-89.0895,"lo2":-89.0444,"dy":0.0017,"dx":0.0017,"nx":28,"ny":28,"refTime":"2023-07-30T03:00:00:Z","depth":"0","parameterNumber":3,"parameterNumberName":"V-component_of_CURRENTS"},"data":[0,0,0,0,0,0,0,0,0,0,0,0,0,0,0,0,0,0,0,0,0,0,0,0,0,0,0,0,0,0,0,0,0,0,0,0,0,0,0,0,0,0,0,0,0,0,0,0,0,0,0,0,0,0,0,0,0,0,0.025,0.025,0,0.0212,0.0212,0.0211,0.0158,0.0158,0.0157,0.0156,0.0108,0.0107,0.0107,0,0,0,0,0,0,0,0,0,0,0,0,0,0.0264,0.0264,0.025,0.025,0.025,0.0212,0.0212,0.0211,0.0159,0.0158,0.0157,0.0156,0.0108,0.0107,0.0107,0,0,0,0,0,0,0,0,0,0,0,0,0,0.0244,0.0264,0.025,0.022,0.0216,0.0212,0.0212,0.0211,0.0159,0.0158,0.0156,0.0155,0.0108,0.0108,0.0107,0.0126,0,0,0.0104,0.0104,0,0,0,0,0,0,0,0,0.0245,0.0244,0.0224,0.0222,0.0218,0.019,0.0199,0.0182,0.0159,0.018,0.0156,0.0155,0.0136,0.0133,0.0127,0.0124,0.0122,0.0104,0.0104,0.0103,0.0103,0,0,0,0,0,0,0,0.0247,0.0245,0.0234,0.0224,0.022,0.0203,0.0199,0.0195,0.0164,0.0178,0.0174,0.0172,0.0134,0.0128,0.0126,0.0121,0.0104,0.0104,0.0103,0.0103,0.0143,0.0145,0,0,0,0,0,0,0.0256,0.0246,0.0236,0.0233,0.023,0.0204,0.0199,0.0199,0.0164,0.0158,0.0173,0.0169,0.013,0.0127,0.0124,0.0168,0.0103,0.0103,0.0102,0.0142,0.0144,0.0145,0,0,0,0,0,0,0.0256,0.0255,0.0237,0.0239,0.0236,0.0205,0.0206,0.0199,0.0191,0.0161,0.0154,0.017,0.0129,0.0125,0.0131,0.0165,0.0102,0.0102,0.014,0.0142,0.0145,0.0242,0,0,0,0,0,0,0.0257,0.0256,0.0263,0.024,0.0236,0.0252,0.0207,0.0199,0.0192,0.0187,0.0157,0.0151,0.0128,0.0133,0.0131,0.0163,0.0101,0.0138,0.0141,0.0144,0.0237,0.0248,0.0257,0,0,0,0,0,0.0257,0.0282,0.0264,0.0263,0.0246,0.0254,0.0251,0.0224,0.0193,0.0207,0.0182,0.0152,0.0149,0.0134,0.0131,0.0163,0.0137,0.014,0.0144,0.0233,0.0246,0.0257,0,0,0,0,0,0,0.0297,0.0278,0.0258,0.0276,0.027,0.0246,0.0261,0.023,0.022,0.0217,0.0172,0.0166,0.0185,0.0162,0.0145,0.0183,0.0138,0.0141,0.0207,0.0219,0.0229,0.0265,0.01,0,0,0,0,0,0.0309,0.0321,0.0298,0.0316,0.0317,0.0286,0.0285,0.0268,0.0253,0.0246,0.0223,0.0205,0.02,0.0198,0.0193,0.0215,0.0218,0.0233,0.0243,0.0252,0.028,0.0332,0.035,0.0157,0.0157,0.0157,0,0,0.0328,0.0322,0.0327,0.0326,0.0319,0.0337,0.0283,0.0297,0.0312,0.0245,0.0266,0.0241,0.0213,0.0239,0.0245,0.0222,0.0303,0.0256,0.0264,0.0288,0.0338,0.0357,0.0373,0.0159,0.0159,0.0158,0,0,0.0382,0.0372,0.0398,0.0402,0.0402,0.0388,0.0392,0.0376,0.0369,0.0386,0.034,0.0344,0.033,0.0325,0.0316,0.038,0.0354,0.0366,0.0447,0.0497,0.0514,0.0529,0.0538,0.0553,0.0371,0.0371,0.0372,0,0.0402,0.0432,0.041,0.0441,0.0453,0.0413,0.0447,0.0443,0.043,0.0448,0.0411,0.042,0.0381,0.0421,0.0429,0.0406,0.0415,0.0403,0.0513,0.0528,0.0541,0.0547,0.0562,0.0376,0.0376,0.0375,0.0375,0,0.0473,0.0497,0.0522,0.0541,0.0553,0.0584,0.0572,0.0589,0.0571,0.057,0.061,0.0569,0.0582,0.0557,0.0505,0.0579,0.0546,0.052,0.0487,0.0567,0.0566,0.0581,0.0384,0.0382,0.038,0.0379,0,0,0.0499,0.0558,0.0563,0.0598,0.061,0.0633,0.0671,0.0704,0.076,0.0741,0.082,0.0777,0.0764,0.0754,0.0698,0.0717,0.0787,0.0659,0.0659,0.0675,0.0879,0.0797,0.0804,0.0785,0.0789,0.0791,0.0832,0,0.0554,0.0645,0.0648,0.0727,0.0769,0.0762,0.0812,0.0842,0.0863,0.0936,0.0908,0.0961,0.0837,0.0859,0.0859,0.0826,0.0834,0.0778,0.0793,0.0793,0.0718,0.0822,0.0755,0.0781,0.0845,0.0848,0.0849,0,0.0602,0.0664,0.0757,0.0841,0.086,0.09,0.0991,0.1037,0.1116,0.1141,0.1182,0.1172,0.1198,0.109,0.1079,0.1051,0.0975,0.0927,0.0927,0.0835,0.074,0.0715,0.0805,0.0609,0.0871,0.0869,0.0868,0,0.0638,0.0728,0.0814,0.0841,0.0931,0.0977,0.1027,0.1106,0.119,0.1294,0.1385,0.1391,0.1445,0.1367,0.1237,0.1182,0.1226,0.1144,0.0993,0.0984,0.0924,0.0904,0.0837,0.1147,0.1147,0.1147,0.1147,0,0.069,0.0755,0.0844,0.0898,0.102,0.105,0.1191,0.1245,0.1372,0.1528,0.1506,0.164,0.1525,0.1521,0.1352,0.1231,0.132,0.1042,0.1013,0.0949,0.0933,0.0753,0.0625,0.1148,0.1148,0.1148,0.1148,0,0.0722,0.0775,0.0888,0.1003,0.1044,0.1138,0.1294,0.1417,0.1511,0.1722,0.1777,0.1871,0.1885,0.1723,0.1629,0.1408,0.1147,0.1194,0.1102,0.1061,0.0703,0.0582,0.0491,0.0416,0.1053,0.1051,0.105,0,0.0758,0.0815,0.0971,0.1063,0.1121,0.1256,0.1374,0.148,0.1623,0.1876,0.2006,0.2097,0.2206,0.2012,0.1665,0.1384,0.1157,0.107,0.0942,0.0708,0.0554,0.0471,0.0409,0.0891,0.0889,0.0887,0.0885,0,0.0823,0.0872,0.0979,0.117,0.13,0.1456,0.1623,0.1749,0.1924,0.2129,0.2406,0.2528,0.2361,0.2102,0.1668,0.1417,0.0899,0.1018,0.0832,0.0478,0.0335,0.024,0.0805,0.0868,0.0869,0.0871,0.0872,0.0872,0.0879,0.097,0.1114,0.1289,0.1453,0.165,0.1786,0.1996,0.2255,0.2585,0.2682,0.2904,0.2434,0.1881,0.153,0.0771,0.0817,0.051,0.0401,0.0354,0.023,0.0731,0.0719,0.072,0.0721,0.0721,0.0722,0,0.0962,0.1064,0.1231,0.1446,0.1634,0.1702,0.196,0.2125,0.2446,0.2778,0.3038,0.2894,0.2323,0.1684,0.0674,0.0222,0.0076,-0.0029,-0.0157,-0.0175,0.0326,0.0264,0.0086,0.0086,0.0087,0.0087,0.0087,0.0087,0.1023,0.1169,0.1249,0.1546,0.1711,0.1947,0.2095,0.2376,0.2629,0.2999,0.3121,0.3176,0.2569,0.0937,-0.016,-0.0379,-0.06,-0.0695,-0.0762,-0.0455,-0.0413,-0.0372,-0.0458,-0.0784,-0.0785,-0.1218,-0.1223,-0.1227]}],[{"header":{"parameterUnit":"m.s-1","parameterCategory":2,"la1":30.2991,"la2":30.254,"lo1":-89.0895,"lo2":-89.0444,"dy":0.0017,"dx":0.0017,"nx":28,"ny":28,"refTime":"2023-07-30T03:00:00:Z","depth":"2","parameterNumber":2,"parameterNumberName":"U-component_of_CURRENTS"},"data":[0,0,0,0,0,0,0,0,0,0,0,0,0,0,0,0,0,0,0,0,0,0,0,0,0,0,0,0,0,0,0,0,0,0,0,0,0,0,0,0,0,0,0,0,0,0,0,0,0,0,0,0,0,0,0,0,0,0,0.3403,0.3403,0,0.3459,0.346,0.346,0.3403,0.34,0.3398,0.3397,0.3441,0.3444,0.3447,0,0,0,0,0,0,0,0,0,0,0,0,0,0.3284,0.3286,0.3402,0.3403,0.3404,0.3459,0.346,0.346,0.3403,0.34,0.3398,0.3396,0.344,0.3444,0.3448,0,0,0,0,0,0,0,0,0,0,0,0,0,0.3335,0.3287,0.3402,0.3384,0.3383,0.3459,0.346,0.3461,0.3403,0.34,0.3397,0.3394,0.3439,0.3443,0.3448,0.3538,0,0,0.3462,0.3464,0,0,0,0,0,0,0,0,0.3332,0.3339,0.3386,0.3385,0.3385,0.3423,0.3434,0.3487,0.3404,0.3393,0.3396,0.3393,0.3438,0.3442,0.3457,0.354,0.3542,0.3463,0.3465,0.3467,0.3469,0,0,0,0,0,0,0,0.3329,0.3337,0.3423,0.3387,0.3386,0.3387,0.339,0.3444,0.343,0.3394,0.339,0.3402,0.3436,0.3452,0.3457,0.3543,0.3462,0.3467,0.3469,0.3471,0.3695,0.3698,0,0,0,0,0,0,0.3329,0.3334,0.3421,0.3425,0.3353,0.3391,0.3395,0.3412,0.343,0.343,0.3404,0.3399,0.3446,0.3452,0.3459,0.357,0.3467,0.3472,0.3474,0.3692,0.3695,0.3699,0,0,0,0,0,0,0.3326,0.3336,0.3419,0.3381,0.3392,0.3397,0.3416,0.3415,0.3441,0.3438,0.3437,0.3433,0.3444,0.3452,0.3498,0.357,0.3474,0.3478,0.3688,0.3693,0.3697,0.379,0,0,0,0,0,0,0.3322,0.3335,0.3358,0.3382,0.3394,0.3468,0.3419,0.3418,0.3453,0.3446,0.3463,0.3463,0.3442,0.3491,0.3502,0.3575,0.3482,0.3684,0.369,0.3696,0.3783,0.3797,0.3809,0,0,0,0,0,0.3318,0.3347,0.3359,0.337,0.3422,0.347,0.3477,0.3467,0.3458,0.3479,0.3477,0.3463,0.3537,0.3497,0.351,0.3585,0.3681,0.3688,0.3695,0.3777,0.3794,0.3809,0,0,0,0,0,0,0.3306,0.3346,0.3357,0.3398,0.3439,0.3461,0.3482,0.3495,0.3516,0.351,0.3499,0.35,0.3569,0.3572,0.3528,0.3668,0.3612,0.3622,0.3669,0.3686,0.3699,0.3662,0.3486,0,0,0,0,0,0.3321,0.3351,0.3395,0.3431,0.3453,0.3483,0.3507,0.3512,0.3531,0.3538,0.3548,0.3571,0.3615,0.3639,0.3666,0.3753,0.3783,0.3813,0.3826,0.3838,0.3818,0.4005,0.4034,0.3722,0.3722,0.3722,0,0,0.3332,0.3354,0.3376,0.3432,0.3459,0.3496,0.3488,0.3535,0.3558,0.3545,0.3581,0.3619,0.3646,0.3719,0.3754,0.3728,0.3931,0.3847,0.3856,0.3829,0.4016,0.4046,0.4073,0.3727,0.3726,0.3725,0,0,0.335,0.3389,0.3415,0.3452,0.3503,0.3525,0.3548,0.3594,0.3602,0.3668,0.3659,0.3736,0.3798,0.3829,0.3855,0.3973,0.3994,0.3998,0.4044,0.4228,0.4255,0.428,0.4306,0.4333,0.401,0.4011,0.4011,0,0.3369,0.3382,0.3434,0.3465,0.3503,0.3541,0.3587,0.3608,0.3659,0.3691,0.3683,0.3831,0.3852,0.3962,0.3978,0.4005,0.4061,0.3979,0.4247,0.4272,0.4296,0.4318,0.4345,0.4016,0.4015,0.4015,0.4014,0,0.3388,0.3409,0.3428,0.3477,0.355,0.3579,0.3641,0.3654,0.3694,0.3759,0.3882,0.3939,0.404,0.4069,0.4047,0.4228,0.4193,0.4242,0.4204,0.4333,0.4346,0.4374,0.4024,0.4022,0.402,0.4019,0,0,0.3406,0.3429,0.3441,0.3453,0.3551,0.3605,0.364,0.3711,0.3748,0.3849,0.3965,0.4057,0.4152,0.4186,0.4227,0.4344,0.4534,0.4354,0.4361,0.437,0.4848,0.4622,0.4629,0.4662,0.4668,0.4673,0.4771,0,0.3396,0.3417,0.3467,0.3519,0.3541,0.3594,0.3677,0.3767,0.3813,0.3925,0.4056,0.4202,0.419,0.4278,0.441,0.453,0.4619,0.4494,0.4727,0.4729,0.4512,0.466,0.4271,0.4311,0.4798,0.4802,0.4806,0,0.3404,0.3404,0.3459,0.3531,0.3567,0.3637,0.3736,0.3822,0.3973,0.4025,0.4182,0.4304,0.4505,0.4493,0.4766,0.4703,0.4764,0.482,0.483,0.46,0.4558,0.4275,0.4342,0.4851,0.4847,0.4844,0.4841,0,0.3359,0.3405,0.3441,0.3467,0.3582,0.3627,0.3726,0.3877,0.3975,0.4127,0.4246,0.447,0.4678,0.4815,0.4931,0.4897,0.5194,0.519,0.5009,0.4989,0.4684,0.4626,0.536,0.536,0.5359,0.5359,0.5359,0,0.3287,0.3327,0.342,0.3409,0.3518,0.3682,0.3799,0.3852,0.4076,0.4249,0.4382,0.4526,0.4793,0.4981,0.5011,0.5092,0.5296,0.5013,0.5035,0.4693,0.4638,0.5131,0.5103,0.5363,0.5362,0.5361,0.5361,0,0.3229,0.3279,0.3347,0.3452,0.3479,0.3625,0.3818,0.3937,0.4123,0.4334,0.4432,0.47,0.4903,0.505,0.5276,0.522,0.5277,0.523,0.4716,0.4673,0.49,0.4876,0.5047,0.5041,0.5036,0.5031,0.5027,0,0.3188,0.319,0.3333,0.3434,0.3478,0.3637,0.3768,0.3933,0.4028,0.4389,0.4508,0.4801,0.4876,0.508,0.5034,0.5019,0.5178,0.463,0.4482,0.4881,0.4887,0.4871,0.4855,0.4097,0.4086,0.4077,0.407,0,0.3106,0.3211,0.325,0.3419,0.3567,0.3671,0.3807,0.3812,0.4074,0.4233,0.4439,0.4556,0.4744,0.4559,0.4554,0.4489,0.4595,0.4436,0.5122,0.4212,0.3989,0.3992,0.4008,0.3989,0.3997,0.4003,0.4007,0.4011,0.3101,0.3181,0.3292,0.3419,0.3599,0.3671,0.3603,0.3733,0.3819,0.3934,0.4161,0.42,0.4252,0.4013,0.3883,0.3801,0.4097,0.3914,0.3943,0.3981,0.383,0.3608,0.35,0.3505,0.3509,0.3513,0.3516,0,0.3097,0.3189,0.3294,0.3416,0.3477,0.3639,0.3632,0.3484,0.3425,0.3619,0.3697,0.3383,0.325,0.3331,0.3054,0.3001,0.2992,0.2896,0.2869,0.295,0.3023,0.2824,0.2227,0.2223,0.2219,0.2216,0,0,0.3138,0.3221,0.322,0.3239,0.3318,0.332,0.3244,0.3052,0.3021,0.2893,0.291,0.3119,0.3224,0.2699,0.26,0.2377,0.2653,0.228,0.3316,0.3368,0.3436,0.3609,0.3392,0,0,0,0,0]},{"header":{"parameterUnit":"m.s-1","parameterCategory":2,"la1":30.2991,"la2":30.254,"lo1":-89.0895,"lo2":-89.0444,"dy":0.0017,"dx":0.0017,"nx":28,"ny":28,"refTime":"2023-07-30T03:00:00:Z","depth":"2","parameterNumber":3,"parameterNumberName":"V-component_of_CURRENTS"},"data":[0,0,0,0,0,0,0,0,0,0,0,0,0,0,0,0,0,0,0,0,0,0,0,0,0,0,0,0,0,0,0,0,0,0,0,0,0,0,0,0,0,0,0,0,0,0,0,0,0,0,0,0,0,0,0,0,0,0,0.0072,0.0071,0,0.0029,0.0028,0.0028,-0.0013,-0.0013,-0.0014,-0.0014,-0.0051,-0.0051,-0.0052,0,0,0,0,0,0,0,0,0,0,0,0,0,0.0094,0.0094,0.0072,0.0071,0.0071,0.0029,0.0028,0.0028,-0.0013,-0.0013,-0.0014,-0.0015,-0.0051,-0.0051,-0.0052,0,0,0,0,0,0,0,0,0,0,0,0,0,0.0072,0.0094,0.0072,0.0045,0.0042,0.0029,0.0028,0.0028,-0.0013,-0.0014,-0.0014,-0.0015,-0.005,-0.0051,-0.0052,-0.004,0,0,-0.0054,-0.0054,0,0,0,0,0,0,0,0,0.0073,0.0071,0.005,0.0047,0.0044,0.0012,0.0023,0.0005,-0.0013,0.0008,-0.0015,-0.0015,-0.0028,-0.0031,-0.0037,-0.0042,-0.0043,-0.0054,-0.0054,-0.0055,-0.0055,0,0,0,0,0,0,0,0.0075,0.0072,0.0055,0.0049,0.0046,0.0027,0.0023,0.0019,-0.0005,0.0007,0.0003,-0.0001,-0.003,-0.0036,-0.0038,-0.0044,-0.0054,-0.0055,-0.0055,-0.0055,-0.0049,-0.0048,0,0,0,0,0,0,0.0082,0.0074,0.0056,0.0054,0.0057,0.0028,0.0023,0.0023,-0.0005,-0.001,-0.0001,-0.0003,-0.0035,-0.0037,-0.004,-0.0022,-0.0055,-0.0055,-0.0056,-0.005,-0.0049,-0.0048,0,0,0,0,0,0,0.0083,0.0081,0.0058,0.0062,0.0058,0.0028,0.0029,0.0023,0.0015,-0.0011,-0.0016,-0.0003,-0.0036,-0.0039,-0.0039,-0.0024,-0.0056,-0.0056,-0.005,-0.0049,-0.0049,0.0011,0,0,0,0,0,0,0.0084,0.0082,0.0088,0.0063,0.0058,0.0063,0.0029,0.0023,0.0013,0.001,-0.0014,-0.0018,-0.0036,-0.0038,-0.0039,-0.0025,-0.0057,-0.0051,-0.005,-0.0049,0.0008,0.0013,0.0018,0,0,0,0,0,0.0085,0.0102,0.0089,0.0086,0.0067,0.0064,0.0061,0.0036,0.0014,0.0023,0.0001,-0.0018,-0.0032,-0.0037,-0.004,-0.0026,-0.0052,-0.005,-0.0049,0.0006,0.0012,0.0018,0,0,0,0,0,0,0.0115,0.0099,0.0083,0.0094,0.0084,0.0058,0.0065,0.0041,0.003,0.0028,-0.0007,-0.0011,-0.0007,-0.0023,-0.0028,-0.0022,-0.0046,-0.0045,-0.0004,0.0002,0.0007,0.0028,-0.0057,0,0,0,0,0,0.0125,0.0136,0.0112,0.0124,0.012,0.0091,0.0087,0.0072,0.0055,0.0049,0.0026,0.0007,-0.0002,-0.0006,-0.0015,-0.0007,-0.0019,-0.0001,0.0004,0.0008,0.0023,0.0039,0.0048,-0.0044,-0.0044,-0.0044,0,0,0.0137,0.0133,0.0136,0.0131,0.0121,0.0132,0.0087,0.0092,0.0101,0.0049,0.0055,0.0027,0.0004,0.001,0.0011,-0.0002,0.002,0.001,0.0014,0.0026,0.0042,0.0051,0.0059,-0.0043,-0.0043,-0.0043,0,0,0.018,0.0167,0.0193,0.0189,0.0183,0.0169,0.0172,0.0148,0.0138,0.0139,0.0102,0.0087,0.0069,0.0057,0.0047,0.0077,0.0047,0.0065,0.011,0.0126,0.0134,0.0141,0.0106,0.011,0.0068,0.0068,0.0068,0,0.0194,0.0227,0.02,0.0224,0.0232,0.0189,0.0221,0.0205,0.0183,0.0187,0.0153,0.0129,0.0096,0.0112,0.0106,0.0091,0.0078,0.0089,0.0134,0.0141,0.0147,0.0111,0.0114,0.0071,0.0071,0.007,0.007,0,0.0256,0.0279,0.0297,0.0314,0.0317,0.0341,0.0317,0.0325,0.03,0.0274,0.0276,0.0227,0.022,0.0192,0.0151,0.0177,0.0142,0.014,0.0122,0.0161,0.0118,0.0121,0.0075,0.0074,0.0073,0.0073,0,0,0.0286,0.0335,0.0339,0.0383,0.0372,0.0399,0.0413,0.0427,0.0464,0.0405,0.0443,0.0377,0.0339,0.0325,0.0274,0.026,0.026,0.0213,0.0213,0.0185,0.026,0.0179,0.0172,0.0269,0.0271,0.0272,0.0202,0,0.0345,0.0434,0.0428,0.0511,0.0555,0.0534,0.0572,0.0572,0.0549,0.0572,0.05,0.0505,0.0394,0.0397,0.0365,0.0314,0.0274,0.0277,0.0223,0.022,0.015,0.0177,0.0205,0.0141,0.0204,0.0204,0.0204,0,0.0401,0.0463,0.0556,0.0654,0.0673,0.0714,0.0785,0.0804,0.0796,0.0784,0.0745,0.068,0.0642,0.055,0.0462,0.0471,0.0362,0.0293,0.029,0.0202,0.0145,0.0118,0.0142,0.0208,0.0208,0.0208,0.0207,0,0.0468,0.0556,0.065,0.0672,0.0757,0.0815,0.086,0.0871,0.0924,0.0908,0.0947,0.0864,0.0875,0.0736,0.0552,0.0523,0.0448,0.0405,0.0213,0.0204,0.0212,0.0201,0.0328,0.0328,0.0328,0.0328,0.0329,0,0.0541,0.0616,0.0701,0.0763,0.0909,0.0912,0.105,0.1072,0.1117,0.1209,0.1064,0.1127,0.0929,0.0839,0.063,0.0435,0.0512,0.0225,0.0195,0.0226,0.0218,0.0271,0.0266,0.0326,0.0326,0.0327,0.0327,0,0.0602,0.0643,0.0768,0.0893,0.0948,0.1044,0.12,0.1293,0.1307,0.1426,0.1433,0.1366,0.1248,0.0995,0.0796,0.0575,0.0368,0.0263,0.0276,0.0247,0.0081,0.0079,0.0057,0.0054,0.0051,0.0049,0.0047,0,0.0651,0.0712,0.0884,0.0969,0.1035,0.1185,0.1308,0.1386,0.1487,0.1583,0.1664,0.1573,0.1518,0.1155,0.0772,0.0388,0.0343,0.0139,0.0077,0.0087,0.006,0.0062,0.0064,0.0096,0.0095,0.0094,0.0093,0,0.0722,0.0768,0.0888,0.1095,0.1235,0.1407,0.1583,0.1719,0.1821,0.1905,0.2015,0.1966,0.161,0.1238,0.0686,0.0423,0.0199,0.0101,0.017,0.0149,0.0116,0.0091,0.0094,0.0083,0.0084,0.0085,0.0086,0.0086,0.0773,0.0879,0.1036,0.123,0.1395,0.1618,0.1793,0.196,0.2151,0.2282,0.2251,0.2143,0.1727,0.0998,0.0579,0.0124,0.0127,-0.0054,-0.0046,-0.0038,-0.0032,-0.0069,-0.0138,-0.0138,-0.0138,-0.0139,-0.0139,0,0.086,0.098,0.1162,0.1414,0.1607,0.1677,0.1967,0.2103,0.2334,0.2395,0.2422,0.1968,0.153,0.1049,0.0369,-0.0043,-0.0046,-0.0172,-0.0076,-0.0065,-0.0056,-0.0047,-0.0159,-0.016,-0.0161,-0.0161,0,0,0.0911,0.1087,0.1201,0.1532,0.1712,0.1963,0.2132,0.2301,0.2385,0.2427,0.2332,0.219,0.1613,0.1119,0.059,0.022,0.0171,0.0142,0.0194,0.038,0.0395,0.0038,0.0065,0,0,0,0,0]}],[{"header":{"parameterUnit":"m.s-1","parameterCategory":2,"la1":30.2991,"la2":30.254,"lo1":-89.0895,"lo2":-89.0444,"dy":0.0017,"dx":0.0017,"nx":28,"ny":28,"refTime":"2023-07-30T03:00:00:Z","depth":"4","parameterNumber":2,"parameterNumberName":"U-component_of_CURRENTS"},"data":[0,0,0,0,0,0,0,0,0,0,0,0,0,0,0,0,0,0,0,0,0,0,0,0,0,0,0,0,0,0,0,0,0,0,0,0,0,0,0,0,0,0,0,0,0,0,0,0,0,0,0,0,0,0,0,0,0,0,0.1755,0.1755,0,0.181,0.181,0.1811,0.1855,0.1856,0.1856,0.1856,0.1967,0.197,0.1972,0,0,0,0,0,0,0,0,0,0,0,0,0,0.1671,0.1673,0.1755,0.1756,0.1756,0.1809,0.181,0.1811,0.1855,0.1856,0.1856,0.1856,0.1966,0.1969,0.1973,0,0,0,0,0,0,0,0,0,0,0,0,0,0.1716,0.1673,0.1755,0.1783,0.1786,0.1809,0.181,0.1811,0.1855,0.1856,0.1856,0.1857,0.1965,0.1969,0.1973,0.1989,0,0,0.1985,0.1987,0,0,0,0,0,0,0,0,0.1714,0.172,0.1779,0.1781,0.1785,0.1825,0.1821,0.1873,0.1855,0.1831,0.1856,0.1857,0.1923,0.1931,0.1942,0.1994,0.1999,0.1986,0.1988,0.199,0.1991,0,0,0,0,0,0,0,0.1711,0.1717,0.1778,0.1779,0.1783,0.1787,0.1794,0.1831,0.1876,0.1833,0.1836,0.1839,0.1926,0.1938,0.1945,0.2,0.1986,0.1989,0.1992,0.1993,0.2143,0.2144,0,0,0,0,0,0,0.1701,0.1715,0.1777,0.178,0.1748,0.1788,0.1796,0.1813,0.1875,0.1884,0.1839,0.1841,0.193,0.194,0.1949,0.2056,0.199,0.1994,0.1996,0.2141,0.2143,0.2145,0,0,0,0,0,0,0.17,0.1707,0.1774,0.1746,0.1755,0.1789,0.1807,0.1813,0.1862,0.1878,0.1889,0.1884,0.1931,0.1943,0.2006,0.2058,0.1995,0.1999,0.2139,0.2142,0.2144,0.2217,0,0,0,0,0,0,0.1697,0.1706,0.174,0.1746,0.1756,0.1812,0.1807,0.1814,0.186,0.1865,0.192,0.1929,0.1932,0.2,0.201,0.2062,0.2002,0.2137,0.214,0.2143,0.2213,0.2222,0.2229,0,0,0,0,0,0.1694,0.1723,0.1742,0.175,0.1794,0.1813,0.182,0.1845,0.1862,0.1891,0.1924,0.1929,0.2026,0.2005,0.2016,0.2071,0.2136,0.214,0.2143,0.2209,0.222,0.2229,0,0,0,0,0,0,0.1698,0.173,0.1751,0.1789,0.1814,0.1821,0.1851,0.187,0.1919,0.1937,0.1952,0.1963,0.2042,0.2041,0.2017,0.212,0.2082,0.2088,0.2128,0.2138,0.2146,0.2126,0.2005,0,0,0,0,0,0.1716,0.1754,0.1775,0.181,0.1825,0.185,0.1871,0.1891,0.1919,0.1943,0.199,0.2028,0.2059,0.2086,0.2122,0.2178,0.2201,0.2218,0.2227,0.2234,0.2223,0.2326,0.2343,0.2157,0.2156,0.2156,0,0,0.1723,0.1749,0.1771,0.1816,0.1837,0.1853,0.1865,0.1907,0.1934,0.1948,0.2031,0.2073,0.2082,0.2147,0.2181,0.2156,0.2298,0.2238,0.2244,0.223,0.2331,0.235,0.2366,0.2159,0.2158,0.2158,0,0,0.1729,0.1786,0.1809,0.1831,0.1875,0.189,0.1911,0.1958,0.2001,0.2063,0.2088,0.2153,0.2211,0.2232,0.2239,0.2313,0.2346,0.2341,0.2364,0.2465,0.2482,0.2496,0.2548,0.2566,0.2337,0.2338,0.2338,0,0.1743,0.1764,0.1818,0.1834,0.1845,0.1907,0.1913,0.1965,0.2037,0.2081,0.2097,0.2215,0.2238,0.2295,0.2318,0.2333,0.2388,0.2327,0.2478,0.2493,0.2507,0.2556,0.2576,0.2342,0.2341,0.2341,0.234,0,0.1738,0.177,0.1783,0.1825,0.1856,0.1875,0.1932,0.2013,0.2076,0.2121,0.2233,0.2281,0.2346,0.2372,0.236,0.2474,0.2481,0.2488,0.2455,0.2531,0.2577,0.2596,0.2347,0.2346,0.2345,0.2344,0,0,0.172,0.1768,0.1779,0.1784,0.1848,0.1864,0.1943,0.2013,0.2088,0.2185,0.2273,0.2336,0.2407,0.2419,0.2458,0.2529,0.2672,0.2555,0.2558,0.2607,0.2888,0.2656,0.2654,0.2735,0.2739,0.2742,0.2881,0,0.1694,0.1702,0.1746,0.1762,0.1756,0.1846,0.1902,0.1993,0.2106,0.2232,0.231,0.2422,0.2413,0.2489,0.2556,0.2677,0.2727,0.2631,0.2804,0.2807,0.2594,0.2669,0.2754,0.2895,0.29,0.2903,0.2905,0,0.1658,0.1665,0.1659,0.1708,0.1721,0.1767,0.1894,0.1959,0.2142,0.2243,0.238,0.2481,0.2624,0.2606,0.2808,0.2767,0.2816,0.2873,0.2881,0.2644,0.2609,0.2804,0.294,0.2937,0.2934,0.2932,0.293,0,0.1562,0.1607,0.1596,0.1606,0.1674,0.1734,0.181,0.1975,0.2073,0.2303,0.2432,0.2589,0.2733,0.2834,0.2946,0.2926,0.3144,0.3133,0.2943,0.2927,0.3064,0.3047,0.3227,0.3227,0.3227,0.3226,0.3226,0,0.1474,0.1477,0.1569,0.1551,0.1592,0.1678,0.1796,0.1911,0.212,0.2255,0.2452,0.2598,0.2814,0.296,0.3004,0.303,0.3198,0.2945,0.2952,0.3089,0.3073,0.3078,0.3059,0.3231,0.323,0.3229,0.3228,0,0.1356,0.1397,0.1388,0.1481,0.1535,0.157,0.179,0.1891,0.2108,0.2313,0.2407,0.2685,0.2881,0.3013,0.3202,0.3104,0.315,0.3091,0.3216,0.3229,0.2848,0.2832,0.2919,0.2912,0.2907,0.2902,0.2898,0,0.1271,0.1264,0.1344,0.136,0.1417,0.1532,0.1627,0.1856,0.1986,0.2339,0.2416,0.2701,0.2855,0.2938,0.3066,0.3113,0.3053,0.3037,0.2925,0.2821,0.2821,0.2813,0.2805,0.2888,0.2887,0.2885,0.2884,0,0.1143,0.1202,0.1211,0.126,0.1343,0.1415,0.1588,0.1683,0.196,0.2196,0.2403,0.2527,0.2714,0.2831,0.2872,0.2891,0.3042,0.2975,0.2986,0.2881,0.2784,0.2788,0.2787,0.2863,0.2866,0.2868,0.2869,0,0.108,0.1071,0.1129,0.1166,0.123,0.1272,0.1384,0.157,0.1724,0.2126,0.2189,0.2472,0.2708,0.2715,0.2761,0.2758,0.271,0.2598,0.2628,0.2652,0.2491,0.2325,0.2271,0,0,0,0,0,0.1018,0.1038,0.1052,0.1047,0.1097,0.1159,0.1343,0.1475,0.1785,0.1871,0.2029,0.2192,0.2325,0.2453,0.2396,0.2595,0.2682,0.251,0.2558,0.275,0.2773,0.2602,0,0,0,0,0,0,0.0976,0.1011,0.1025,0.0964,0.0954,0.101,0.1125,0.1321,0.1387,0.1709,0.1797,0.2021,0.2174,0.2339,0.2347,0.2377,0.2349,0.2668,0.266,0.2736,0.2758,0.2777,0.2609,0,0,0,0,0]},{"header":{"parameterUnit":"m.s-1","parameterCategory":2,"la1":30.2991,"la2":30.254,"lo1":-89.0895,"lo2":-89.0444,"dy":0.0017,"dx":0.0017,"nx":28,"ny":28,"refTime":"2023-07-30T03:00:00:Z","depth":"4","parameterNumber":3,"parameterNumberName":"V-component_of_CURRENTS"},"data":[0,0,0,0,0,0,0,0,0,0,0,0,0,0,0,0,0,0,0,0,0,0,0,0,0,0,0,0,0,0,0,0,0,0,0,0,0,0,0,0,0,0,0,0,0,0,0,0,0,0,0,0,0,0,0,0,0,0,0.0084,0.0084,0,0.0058,0.0058,0.0057,0.0038,0.0038,0.0038,0.0038,0.0016,0.0015,0.0015,0,0,0,0,0,0,0,0,0,0,0,0,0,0.0093,0.0093,0.0084,0.0084,0.0083,0.0058,0.0058,0.0057,0.0038,0.0038,0.0038,0.0038,0.0016,0.0015,0.0015,0,0,0,0,0,0,0,0,0,0,0,0,0,0.0081,0.0093,0.0084,0.0071,0.0069,0.0058,0.0058,0.0057,0.0038,0.0038,0.0038,0.0038,0.0016,0.0015,0.0015,0.0016,0,0,0.0013,0.0013,0,0,0,0,0,0,0,0,0.0081,0.008,0.0073,0.0072,0.007,0.0051,0.0053,0.0044,0.0039,0.005,0.0038,0.0038,0.0028,0.0026,0.0022,0.0015,0.0014,0.0013,0.0012,0.0012,0.0012,0,0,0,0,0,0,0,0.0082,0.0081,0.0074,0.0073,0.0071,0.0058,0.0056,0.0051,0.0041,0.0049,0.0048,0.0045,0.0027,0.0023,0.0022,0.0014,0.0013,0.0012,0.0012,0.0012,-0.0005,-0.0005,0,0,0,0,0,0,0.0087,0.0082,0.0075,0.0073,0.0075,0.0058,0.0056,0.0057,0.0041,0.0038,0.0045,0.0044,0.0024,0.0022,0.0021,0.0035,0.0012,0.0012,0.0011,-0.0005,-0.0005,-0.0005,0,0,0,0,0,0,0.0087,0.0087,0.0076,0.0077,0.0074,0.0058,0.006,0.0057,0.0053,0.0038,0.0035,0.0044,0.0024,0.0022,0.0017,0.0034,0.0011,0.0011,-0.0005,-0.0005,-0.0005,0.0055,0,0,0,0,0,0,0.0088,0.0087,0.0092,0.0077,0.0074,0.0075,0.006,0.0057,0.0052,0.005,0.0036,0.0034,0.0023,0.0018,0.0016,0.0032,0.001,-0.0005,-0.0005,-0.0005,0.0053,0.0057,0.006,0,0,0,0,0,0.0088,0.0098,0.0093,0.0092,0.0081,0.0076,0.0074,0.0061,0.0052,0.0056,0.0042,0.0034,0.0016,0.0018,0.0016,0.0032,-0.0005,-0.0005,-0.0005,0.0052,0.0056,0.006,0,0,0,0,0,0,0.0105,0.0097,0.0091,0.0098,0.0089,0.0073,0.0077,0.0064,0.0056,0.0058,0.0037,0.0034,0.0033,0.002,0.0022,0.0023,0.0003,0.0003,0.0047,0.0051,0.0055,0.0072,0.001,0,0,0,0,0,0.0112,0.0119,0.0104,0.0111,0.0109,0.0093,0.0089,0.0083,0.0072,0.0068,0.0053,0.0039,0.0031,0.0032,0.0018,0.0025,-0.001,0.0031,0.0035,0.0038,0.0048,0.0001,0.0002,-0.0005,-0.0005,-0.0005,0,0,0.0118,0.0117,0.0119,0.0116,0.011,0.0125,0.0091,0.0094,0.0111,0.0068,0.0081,0.0051,0.0032,0.0037,0.0036,0.0031,0.0018,0.0038,0.0041,0.005,0.0001,0.0002,0.0003,-0.0005,-0.0005,-0.0005,0,0,0.0147,0.0137,0.0156,0.0157,0.0156,0.0148,0.015,0.0135,0.0133,0.0135,0.0108,0.0086,0.0074,0.0065,0.0059,0.0074,0.0034,0.0067,0.011,0.0064,0.0065,0.0065,0.0012,0.0006,0.0076,0.0076,0.0076,0,0.0156,0.0188,0.016,0.0186,0.02,0.0164,0.0198,0.019,0.0174,0.0176,0.0148,0.0111,0.0091,0.0099,0.0101,0.0085,0.0046,0.01,0.007,0.0069,0.0068,0.0014,0.0007,0.0079,0.0078,0.0078,0.0078,0,0.0207,0.0234,0.0247,0.0272,0.0275,0.03,0.0288,0.029,0.0272,0.0252,0.0238,0.0191,0.0172,0.0155,0.0136,0.0125,0.0094,0.0075,0.0063,0.0073,0.0014,0.0007,0.0083,0.0082,0.0081,0.008,0,0,0.0228,0.0277,0.0284,0.0322,0.0332,0.0345,0.0371,0.0383,0.0401,0.0352,0.036,0.0318,0.0269,0.0258,0.0218,0.0174,0.0124,0.0128,0.0124,0.0083,0.0012,0.0004,-0.0006,0.0097,0.0097,0.0096,-0.0029,0,0.0285,0.0364,0.0368,0.0442,0.0483,0.0471,0.0499,0.0497,0.0474,0.0463,0.0396,0.0382,0.0318,0.0307,0.0251,0.0161,0.0108,0.0159,0.0002,-0.0002,-0.0004,-0.0013,0.0094,-0.0035,-0.0037,-0.0038,-0.0039,0,0.0341,0.0391,0.0484,0.0549,0.0564,0.0602,0.0643,0.0665,0.0633,0.0609,0.0561,0.0492,0.0432,0.0367,0.0215,0.0249,0.0139,0.0054,0.0046,0.0017,-0.0024,-0.0047,-0.0054,-0.0053,-0.0052,-0.0051,-0.005,0,0.0389,0.0471,0.0559,0.0584,0.0644,0.069,0.072,0.0714,0.0748,0.0706,0.0699,0.0594,0.0553,0.0404,0.0219,0.0219,0.0026,0.0007,-0.0109,-0.0112,-0.0093,-0.0091,-0.011,-0.011,-0.011,-0.0109,-0.0109,0,0.0456,0.052,0.0598,0.065,0.0749,0.0762,0.0855,0.0854,0.0867,0.0899,0.0786,0.0765,0.0558,0.0416,0.0241,0.0041,0.0042,-0.0103,-0.0141,-0.0067,-0.0061,-0.0099,-0.0096,-0.0114,-0.0113,-0.0112,-0.0111,0,0.0495,0.055,0.065,0.0742,0.0783,0.0852,0.0964,0.1022,0.1014,0.1051,0.1044,0.0901,0.0716,0.0486,0.0232,0.009,-0.0112,-0.0189,-0.01,-0.0131,-0.0226,-0.0219,-0.0313,-0.0314,-0.0315,-0.0316,-0.0317,0,0.053,0.0586,0.072,0.0791,0.0847,0.0963,0.1051,0.1098,0.1153,0.1128,0.1139,0.0977,0.0851,0.0484,0.0236,-0.0101,-0.0152,-0.0258,-0.0237,-0.0217,-0.0246,-0.0237,-0.0228,-0.0319,-0.0319,-0.0319,-0.0319,0,0.0573,0.062,0.0704,0.0854,0.0971,0.1102,0.1219,0.1272,0.1315,0.1307,0.1216,0.1016,0.0796,0.0495,0.0225,-0.0018,-0.0185,-0.027,-0.0269,-0.025,-0.0225,-0.025,-0.0241,-0.0323,-0.0323,-0.0322,-0.0322,0,0.0604,0.0659,0.0771,0.0901,0.1043,0.1182,0.1257,0.1322,0.1375,0.1337,0.1301,0.105,0.0905,0.0536,0.0287,0.0048,-0.0006,-0.0078,-0.0089,-0.0087,0.0011,0.0077,0.0042,0,0,0,0,0,0.0631,0.0687,0.0807,0.0951,0.1091,0.1187,0.1335,0.1398,0.1439,0.1392,0.135,0.1138,0.0764,0.0592,0.0354,0.0265,-0.005,-0.0022,-0.0138,-0.0344,-0.0339,-0.0263,0,0,0,0,0,0,0.0646,0.0746,0.08,0.0959,0.1068,0.1241,0.1349,0.1396,0.1366,0.1354,0.1157,0.1064,0.0698,0.0887,0.0336,0.0264,0.0158,-0.0197,-0.0202,-0.0346,-0.0342,-0.0339,-0.0259,0,0,0,0,0]}]]